Flag for Germany Weather past 2 weeks in Herten, North Rhine-Westphalia, Germany

Now
63 °F

Fog.


Feels Like: 63 °F
Forecast: 56 / 74 °F
Wind: 3 mph from Northwest

Location: Essen

Current Time: Jul 29, 2014 at 4:09:53 AM

Latest Report: Jul 29, 2014 at 3:00 AM


Visibility: 4 mi

Pressure: 29.85 "Hg

Humidity: 95%

Dew point: 62 °F

Location of HertenLocation

Historic Weather in Herten — Graph

°F

Herten temperature yesterday

Maximum temperature yesterday: 79 °F (at 2:00 PM)
Minimum temperature yesterday: 65 °F (at 4:00 AM)
Average temperature yesterday: 69 °F

Past Weeks' High & Low Weather Summary

 TemperatureHumidityPressure
High92 °F (Jul 19, 5:00 PM)100% (Jul 26, 6:00 AM)30.19 "Hg (Jul 26, 6:00 AM)
Low56 °F (Jul 15, 6:00 AM)27% (Jul 19, 1:00 PM)29.75 "Hg (Jul 20, 5:00 AM)
Average70 °F71%29.98 "Hg
* Reported Jul 14 3:00 AM — Jul 29 3:00 AM, Herten, Weather by CustomWeather, © 2014

Note: Actual official high and low records may vary slightly from our data, if they occured in-between our weather recording intervals... More about our weather records

Advertising

Herten weather history for previous 24 hours

 ConditionsComfort  
Time TempWeatherWind HumidityBarometerVisibility
3:00 AM
Jul 29
63 °FFog.3 mph95%29.85 "Hg4 mi
2:00 AM64 °FClear.2 mph93%29.84 "Hg6 mi
1:00 AM65 °FFog.2 mph95%29.85 "Hg4 mi
12:00 AM65 °FOvercast.3 mph93%29.86 "Hg4 mi
11:00 PM
Jul 28
66 °FOvercast.3 mph90%29.85 "Hg6 mi
10:00 PM66 °FLow clouds.3 mph93%29.88 "Hg5 mi
9:00 PM67 °FScattered clouds.3 mph91%29.86 "Hg5 mi
8:00 PM68 °FPartly sunny.3 mph92%29.85 "Hg3 mi
7:00 PM69 °FDrizzle. Low clouds.1 mph90%29.84 "Hg4 mi
6:00 PM71 °FOvercast.1 mph73%29.84 "Hg16 mi
5:00 PM72 °FOvercast.3 mph71%29.84 "Hg13 mi
4:00 PM75 °FOvercast.5 mph63%29.80 "Hg12 mi
3:00 PM78 °FScattered clouds.3 mph66%29.81 "Hg11 mi
2:00 PM79 °FScattered clouds.3 mph59%29.82 "Hg14 mi
1:00 PM76 °FPartly sunny.3 mph64%29.84 "Hg13 mi
12:00 PM75 °FPartly sunny.3 mph65%29.85 "Hg12 mi
11:00 AM73 °FPassing clouds.5 mph70%29.86 "Hg9 mi
10:00 AM73 °FOvercast.3 mph72%29.86 "Hg7 mi
9:00 AM67 °FOvercast.3 mph82%29.88 "Hg6 mi
8:00 AM66 °FFog.3 mph85%29.89 "Hg4 mi
7:00 AM65 °FFog.3 mph85%29.90 "Hg4 mi
6:00 AM65 °FFog.3 mph85%29.90 "Hg4 mi
5:00 AM65 °FPassing clouds.3 mph87%29.92 "Hg5 mi
4:00 AM65 °FOvercast.2 mph88%29.93 "Hg5 mi
Weather by CustomWeather, © 2014

See weather overviewHow to use our weather pages